This is the latest recevied weather packets stored in our database for station/object LA3SP-1. If no packets are shown the sender has not sent any weather packets the latest 10 day(s).
| Time | Temp. | Humidity | Pressure | Rain* | Wind** | Luminosity | Snow |
|---|---|---|---|---|---|---|---|
| 1778060054 | 3.89° C | 54% | 1007 hPa | 0 mm | - | - | - |
| 1778059082 | 0.56° C | 54% | 1007 hPa | 0 mm | - | - | - |
| 1778058852 | 1.67° C | 56% | 1006.9 hPa | 0 mm | - | - | - |
| 1778058250 | 0.56° C | 54% | 1007 hPa | 0 mm | - | - | - |
| 1778058182 | 1.67° C | 56% | 1007 hPa | 0 mm | - | - | - |
| 1778057047 | 1.11° C | 56% | 1007 hPa | 0 mm | - | - | - |
| 1778056446 | 1.67° C | 56% | 1007 hPa | 0 mm | - | - | - |
| 1778055844 | 1.67° C | 58% | 1006.9 hPa | 0 mm | - | - | - |
| 1778054642 | 0.56° C | 58% | 1006.8 hPa | 0 mm | - | - | - |
| 1778054143 | 0.56° C | 61% | 1006.7 hPa | 0 mm | - | - | - |
| 1778054040 | 1.11° C | 59% | 1006.8 hPa | 0 mm | - | - | - |
| 1778053439 | 0.56° C | 61% | 1006.7 hPa | 0 mm | - | - | - |
| 1778052837 | -0.56° C | 62% | 1006.7 hPa | 0 mm | - | - | - |
| 1778052238 | -1.11° C | 64% | 1006.7 hPa | 0 mm | - | - | - |
| 1778051034 | -2.22° C | 65% | 1006.6 hPa | 0 mm | - | - | - |
| 1778050433 | -2.22° C | 65% | 1006.6 hPa | 0 mm | - | - | - |
| 1778049831 | -2.78° C | 66% | 1006.5 hPa | 0 mm | - | - | - |
| 1778049229 | -2.78° C | 67% | 1006.6 hPa | 0 mm | - | - | - |
| 1778048628 | -2.78° C | 67% | 1006.5 hPa | 0 mm | - | - | - |
| 1778048026 | -2.78° C | 67% | 1006.6 hPa | 0 mm | - | - | - |
| 1778047425 | -3.33° C | 68% | 1006.6 hPa | 0 mm | - | - | - |
| 1778046222 | -4.44° C | 70% | 1006.8 hPa | 0 mm | - | - | - |
| 1778045681 | -5° C | 70% | 1006.9 hPa | 0 mm | - | - | - |
| 1778045621 | -5° C | 70% | 1006.9 hPa | 0 mm | - | - | - |
| 1778045019 | -5° C | 71% | 1006.8 hPa | 0 mm | - | - | - |
* Rain latest 24 hours (hover to see other rain measurements)
** Current wind speed in m/s (hover to see current wind gust speed)